Home   Weather   Niagara Falls   Past weeks

Flag for Canada Past Weather in Niagara Falls, Ontario, Canada — Yesterday and Last 2 Weeks

Now
36 °F

Overcast.


Feels Like: 28 °F
Forecast: 36 / 41 °F
Wind: 12 mph from East

Location: Niagara Falls International Airport

Current Time: Dec 4, 2016 at 11:47:38 pm

Latest Report: Dec 4, 2016 at 10:53 pm


Visibility: 10 mi

Pressure: 29.93 "Hg

Humidity: 70%

Dew Point: 27 °F

Location of Niagara FallsLocation

Past Weather in Niagara Falls — Graph

°F

Niagara Falls Temperature Yesterday

Maximum temperature yesterday: 43 °F (at 1:53 pm)
Minimum temperature yesterday: 34 °F (at 7:53 am)
Average temperature yesterday: 39 °F

High & Low Weather Summary for the Past Weeks

 TemperatureHumidityPressure
High63 °F (Nov 30, 10:53 am)93% (Nov 25, 12:53 am)30.40 "Hg (Nov 25, 12:53 am)
Low26 °F (Nov 22, 8:53 pm)37% (Nov 28, 2:53 pm)29.45 "Hg (Nov 30, 8:53 pm)
Average40 °F70%30.01 "Hg
* Reported Nov 19 10:53 pm — Dec 4 10:53 pm, Niagara Falls, Weather by CustomWeather, © 2016

Note: Actual official high and low records may vary slightly from our data, if they occured in-between our weather recording intervals... More about our weather records

Advertising

Niagara Falls Weather History for the Previous 24 Hours

Scroll right to see more
 ConditionsComfort  
Time TempWeatherWind HumidityBarometerVisibility
10:53 pm
Sun, Dec 4
36 °FOvercast.12 mph70%29.93 "Hg10 mi
9:53 pm38 °FLight rain. Overcast.13 mph63%29.95 "Hg10 mi
8:53 pm38 °FMostly cloudy.8 mph63%30.02 "Hg10 mi
7:53 pm38 °FMostly cloudy.8 mph63%30.07 "Hg10 mi
6:53 pm38 °FMostly cloudy.10 mph65%30.09 "Hg10 mi
5:53 pm38 °FMostly cloudy.7 mph65%30.13 "Hg10 mi
4:53 pm39 °FOvercast.8 mph62%30.14 "Hg10 mi
3:53 pm40 °FPartly sunny.6 mph60%30.16 "Hg10 mi
2:53 pm41 °FPartly sunny.7 mph60%30.19 "Hg10 mi
1:53 pm41 °FPartly sunny.6 mph58%30.22 "Hg10 mi
12:53 pm41 °FPartly sunny.9 mph62%30.22 "Hg10 mi
11:53 am40 °FPartly sunny.10 mph68%30.26 "Hg10 mi
10:53 am39 °FOvercast.5 mph67%30.30 "Hg10 mi
9:53 am38 °FOvercast.7 mph70%30.30 "Hg10 mi
8:53 am38 °FPartly sunny.3 mph70%30.29 "Hg10 mi
7:53 am37 °FPartly sunny.5 mph73%30.28 "Hg10 mi
7:04 am37 °FPassing clouds.5 mph73%30.24 "Hg10 mi
5:53 am38 °FMostly cloudy.6 mph76%30.27 "Hg10 mi
4:53 am38 °FMostly cloudy.No wind76%30.27 "Hg10 mi
3:53 am38 °FMostly cloudy.No wind79%30.28 "Hg10 mi
2:53 am38 °FMostly cloudy.6 mph76%30.29 "Hg10 mi
1:53 am37 °FOvercast.6 mph76%30.27 "Hg10 mi
12:53 am38 °FOvercast.6 mph73%30.27 "Hg10 mi
11:53 pm
Sat, Dec 3
38 °FOvercast.6 mph73%30.28 "Hg10 mi
Weather by CustomWeather, © 2016

See weather overviewHow to use our weather pages